Year,Month,Day,Hour,Minute,Value (Times are PST for temperature in C)
2011,06,21,00,00,13.90
2011,06,21,00,01,13.90
2011,06,21,00,02,13.90
2011,06,21,00,03,13.80
2011,06,21,00,04,13.80
2011,06,21,00,05,13.80
2011,06,21,00,06,13.70
2011,06,21,00,07,13.70
2011,06,21,00,08,13.70
2011,06,21,00,09,13.70
2011,06,21,00,10,13.60
2011,06,21,00,11,13.60
2011,06,21,00,12,13.50
2011,06,21,00,13,13.50
2011,06,21,00,14,13.40
2011,06,21,00,15,13.40
2011,06,21,00,16,13.40
2011,06,21,00,17,13.40
2011,06,21,00,18,13.30
2011,06,21,00,19,13.30
2011,06,21,00,20,13.30
2011,06,21,00,21,13.30
2011,06,21,00,22,13.30
2011,06,21,00,23,13.30
2011,06,21,00,24,13.30
2011,06,21,00,25,13.20
2011,06,21,00,26,13.20
2011,06,21,00,27,13.20
2011,06,21,00,28,13.20
2011,06,21,00,29,13.20
2011,06,21,00,30,13.10
2011,06,21,00,31,13.10
2011,06,21,00,32,13.10
2011,06,21,00,33,13.10
2011,06,21,00,34,13.00
2011,06,21,00,35,13.00
2011,06,21,00,36,13.00
2011,06,21,00,37,13.00
2011,06,21,00,38,12.90
2011,06,21,00,39,12.90
2011,06,21,00,40,12.90
2011,06,21,00,41,12.90
2011,06,21,00,42,12.80
2011,06,21,00,43,12.80
2011,06,21,00,44,12.80
2011,06,21,00,45,12.80
2011,06,21,00,46,12.80
2011,06,21,00,47,12.70
2011,06,21,00,48,12.70
2011,06,21,00,49,12.70
2011,06,21,00,50,12.70
2011,06,21,00,51,12.70
2011,06,21,00,52,12.70
2011,06,21,00,53,12.60
2011,06,21,00,54,12.60
2011,06,21,00,55,12.60
2011,06,21,00,56,12.60
2011,06,21,00,57,12.60
2011,06,21,00,58,12.60
2011,06,21,00,59,12.60
2011,06,21,01,00,12.60
2011,06,21,01,01,12.60
2011,06,21,01,02,12.60
2011,06,21,01,03,12.60
2011,06,21,01,04,12.60
2011,06,21,01,05,12.60
2011,06,21,01,06,12.60
2011,06,21,01,07,12.60
2011,06,21,01,08,12.60
2011,06,21,01,09,12.60
2011,06,21,01,10,12.60
2011,06,21,01,11,12.60
2011,06,21,01,12,12.60
2011,06,21,01,13,12.60
2011,06,21,01,14,12.50
2011,06,21,01,15,12.50
2011,06,21,01,16,12.50
2011,06,21,01,17,12.50
2011,06,21,01,18,12.50
2011,06,21,01,19,12.50
2011,06,21,01,20,12.40
2011,06,21,01,21,12.40
2011,06,21,01,22,12.40
2011,06,21,01,23,12.40
2011,06,21,01,24,12.40
2011,06,21,01,25,12.40
2011,06,21,01,26,12.40
2011,06,21,01,27,12.40
2011,06,21,01,28,12.40
2011,06,21,01,29,12.40
2011,06,21,01,30,12.30
2011,06,21,01,31,12.30
2011,06,21,01,32,12.30
2011,06,21,01,33,12.30
2011,06,21,01,34,12.30
2011,06,21,01,35,12.30
2011,06,21,01,36,12.30
2011,06,21,01,37,12.30
2011,06,21,01,38,12.30
2011,06,21,01,39,12.40
2011,06,21,01,40,12.40
2011,06,21,01,41,12.40
2011,06,21,01,42,12.40
2011,06,21,01,43,12.40
2011,06,21,01,44,12.40
2011,06,21,01,45,12.40
2011,06,21,01,46,12.40
2011,06,21,01,47,12.40
2011,06,21,01,48,12.40
2011,06,21,01,49,12.40
2011,06,21,01,50,12.40
2011,06,21,01,51,12.40
2011,06,21,01,52,12.40
2011,06,21,01,53,12.40
2011,06,21,01,54,12.40
2011,06,21,01,55,12.40
2011,06,21,01,56,12.40
2011,06,21,01,57,12.40
2011,06,21,01,58,12.40
2011,06,21,01,59,12.40
2011,06,21,02,00,12.40
2011,06,21,02,01,12.40
2011,06,21,02,02,12.40
2011,06,21,02,03,12.40
2011,06,21,02,04,12.40
2011,06,21,02,05,12.40
2011,06,21,02,06,12.40
2011,06,21,02,07,12.40
2011,06,21,02,08,12.30
2011,06,21,02,09,12.30
2011,06,21,02,10,12.30
2011,06,21,02,11,12.30
2011,06,21,02,12,12.30
2011,06,21,02,13,12.30
2011,06,21,02,14,12.30
2011,06,21,02,15,12.30
2011,06,21,02,16,12.30
2011,06,21,02,17,12.30
2011,06,21,02,18,12.30
2011,06,21,02,19,12.30
2011,06,21,02,20,12.30
2011,06,21,02,21,12.30
2011,06,21,02,22,12.30
2011,06,21,02,23,12.30
2011,06,21,02,24,12.30
2011,06,21,02,25,12.30
2011,06,21,02,26,12.30
2011,06,21,02,27,12.30
2011,06,21,02,28,12.30
2011,06,21,02,29,12.30
2011,06,21,02,30,12.30
2011,06,21,02,31,12.20
2011,06,21,02,32,12.20
2011,06,21,02,33,12.20
2011,06,21,02,34,12.20
2011,06,21,02,35,12.20
2011,06,21,02,36,12.20
2011,06,21,02,37,12.20
2011,06,21,02,38,12.20
2011,06,21,02,39,12.20
2011,06,21,02,40,12.20
2011,06,21,02,41,12.10
2011,06,21,02,42,12.10
2011,06,21,02,43,12.10
2011,06,21,02,44,12.10
2011,06,21,02,45,12.10
2011,06,21,02,46,12.10
2011,06,21,02,47,12.10
2011,06,21,02,48,12.10
2011,06,21,02,49,12.10
2011,06,21,02,50,12.10
2011,06,21,02,51,12.10
2011,06,21,02,52,12.10
2011,06,21,02,53,12.10
2011,06,21,02,54,12.10
2011,06,21,02,55,12.00
2011,06,21,02,56,12.00
2011,06,21,02,57,12.00
2011,06,21,02,58,12.00
2011,06,21,02,59,12.00
2011,06,21,03,00,11.90
2011,06,21,03,01,11.90
2011,06,21,03,02,11.90
2011,06,21,03,03,11.90
2011,06,21,03,04,11.90
2011,06,21,03,05,11.80
2011,06,21,03,06,11.80
2011,06,21,03,07,11.80
2011,06,21,03,08,11.80
2011,06,21,03,09,11.80
2011,06,21,03,10,11.80
2011,06,21,03,11,11.80
2011,06,21,03,12,11.70
2011,06,21,03,13,11.70
2011,06,21,03,14,11.70
2011,06,21,03,15,11.70
2011,06,21,03,16,11.60
2011,06,21,03,17,11.60
2011,06,21,03,18,11.60
2011,06,21,03,19,11.60
2011,06,21,03,20,11.60
2011,06,21,03,21,11.50
2011,06,21,03,22,11.50
2011,06,21,03,23,11.50
2011,06,21,03,24,11.50
2011,06,21,03,25,11.50
2011,06,21,03,26,11.40
2011,06,21,03,27,11.40
2011,06,21,03,28,11.40
2011,06,21,03,29,11.40
2011,06,21,03,30,11.40
2011,06,21,03,31,11.40
2011,06,21,03,32,11.40
2011,06,21,03,33,11.40
2011,06,21,03,34,11.40
2011,06,21,03,35,11.40
2011,06,21,03,36,11.40
2011,06,21,03,37,11.40
2011,06,21,03,38,11.40
2011,06,21,03,39,11.40
2011,06,21,03,40,11.30
2011,06,21,03,41,11.30
2011,06,21,03,42,11.30
2011,06,21,03,43,11.30
2011,06,21,03,44,11.30
2011,06,21,03,45,11.30
2011,06,21,03,46,11.30
2011,06,21,03,47,11.30
2011,06,21,03,48,11.30
2011,06,21,03,49,11.30
2011,06,21,03,50,11.20
2011,06,21,03,51,11.20
2011,06,21,03,52,11.20
2011,06,21,03,53,11.20
2011,06,21,03,54,11.20
2011,06,21,03,55,11.20
2011,06,21,03,56,11.20
2011,06,21,03,57,11.20
2011,06,21,03,58,11.20
2011,06,21,03,59,11.20
2011,06,21,04,00,11.10
2011,06,21,04,01,11.10
2011,06,21,04,02,11.10
2011,06,21,04,03,11.10
2011,06,21,04,04,11.10
2011,06,21,04,05,11.10
2011,06,21,04,06,11.10
2011,06,21,04,07,11.00
2011,06,21,04,08,11.00
2011,06,21,04,09,11.00
2011,06,21,04,10,11.00
2011,06,21,04,11,10.90
2011,06,21,04,12,10.90
2011,06,21,04,13,10.90
2011,06,21,04,14,10.90
2011,06,21,04,15,10.90
2011,06,21,04,16,10.80
2011,06,21,04,17,10.80
2011,06,21,04,18,10.80
2011,06,21,04,19,10.80
2011,06,21,04,20,10.80
2011,06,21,04,21,10.80
2011,06,21,04,22,10.80
2011,06,21,04,23,10.80
2011,06,21,04,24,10.80
2011,06,21,04,25,10.70
2011,06,21,04,26,10.70
2011,06,21,04,27,10.70
2011,06,21,04,28,10.70
2011,06,21,04,29,10.70
2011,06,21,04,30,10.70
2011,06,21,04,31,10.70
2011,06,21,04,32,10.70
2011,06,21,04,33,10.70
2011,06,21,04,34,10.70
2011,06,21,04,35,10.70
2011,06,21,04,36,10.70
2011,06,21,04,37,10.70
2011,06,21,04,38,10.60
2011,06,21,04,39,10.60
2011,06,21,04,40,10.60
2011,06,21,04,41,10.60
2011,06,21,04,42,10.60
2011,06,21,04,43,10.60
2011,06,21,04,44,10.60
2011,06,21,04,45,10.60
2011,06,21,04,46,10.60
2011,06,21,04,47,10.60
2011,06,21,04,48,10.60
2011,06,21,04,49,10.60
2011,06,21,04,50,10.60
2011,06,21,04,51,10.60
2011,06,21,04,52,10.60
2011,06,21,04,53,10.60
2011,06,21,04,54,10.60
2011,06,21,04,55,10.60
2011,06,21,04,56,10.60
2011,06,21,04,57,10.50
2011,06,21,04,58,10.50
2011,06,21,04,59,10.50
2011,06,21,05,00,10.50
2011,06,21,05,01,10.50
2011,06,21,05,02,10.60
2011,06,21,05,03,10.60
2011,06,21,05,04,10.60
2011,06,21,05,05,10.60
2011,06,21,05,06,10.60
2011,06,21,05,07,10.70
2011,06,21,05,08,10.60
2011,06,21,05,09,10.60
2011,06,21,05,10,10.60
2011,06,21,05,11,10.60
2011,06,21,05,12,10.60
2011,06,21,05,13,10.60
2011,06,21,05,14,10.60
2011,06,21,05,15,10.60
2011,06,21,05,16,10.60
2011,06,21,05,17,10.60
2011,06,21,05,18,10.60
2011,06,21,05,19,10.60
2011,06,21,05,20,10.60
2011,06,21,05,21,10.60
2011,06,21,05,22,10.70
2011,06,21,05,23,10.70
2011,06,21,05,24,10.70
2011,06,21,05,25,10.70
2011,06,21,05,26,10.70
2011,06,21,05,27,10.70
2011,06,21,05,28,10.70
2011,06,21,05,29,10.70
2011,06,21,05,30,10.70
2011,06,21,05,31,10.70
2011,06,21,05,32,10.70
2011,06,21,05,33,10.70
2011,06,21,05,34,10.70
2011,06,21,05,35,10.70
2011,06,21,05,36,10.70
2011,06,21,05,37,10.70
2011,06,21,05,38,10.70
2011,06,21,05,39,10.70
2011,06,21,05,40,10.70
2011,06,21,05,41,10.70
2011,06,21,05,42,10.70
2011,06,21,05,43,10.70
2011,06,21,05,44,10.70
2011,06,21,05,45,10.70
2011,06,21,05,46,10.70
2011,06,21,05,47,10.70
2011,06,21,05,48,10.70
2011,06,21,05,49,10.60
2011,06,21,05,50,10.60
2011,06,21,05,51,10.60
2011,06,21,05,52,10.60
2011,06,21,05,53,10.60
2011,06,21,05,54,10.60
2011,06,21,05,55,10.50
2011,06,21,05,56,10.50
2011,06,21,05,57,10.50
2011,06,21,05,58,10.50
2011,06,21,05,59,10.50
2011,06,21,06,00,10.50
2011,06,21,06,01,10.40
2011,06,21,06,02,10.40
2011,06,21,06,03,10.40
2011,06,21,06,04,10.40
2011,06,21,06,05,10.40
2011,06,21,06,06,10.40
2011,06,21,06,07,10.40
2011,06,21,06,08,10.40
2011,06,21,06,09,10.40
2011,06,21,06,10,10.40
2011,06,21,06,11,10.40
2011,06,21,06,12,10.40
2011,06,21,06,13,10.40
2011,06,21,06,14,10.40
2011,06,21,06,15,10.40
2011,06,21,06,16,10.40
2011,06,21,06,17,10.40
2011,06,21,06,18,10.40
2011,06,21,06,19,10.40
2011,06,21,06,20,10.40
2011,06,21,06,21,10.40
2011,06,21,06,22,10.40
2011,06,21,06,23,10.50
2011,06,21,06,24,10.50
2011,06,21,06,25,10.60
2011,06,21,06,26,10.60
2011,06,21,06,27,10.60
2011,06,21,06,28,10.60
2011,06,21,06,29,10.70
2011,06,21,06,30,10.70
2011,06,21,06,31,10.80
2011,06,21,06,32,10.80
2011,06,21,06,33,10.80
2011,06,21,06,34,10.80
2011,06,21,06,35,10.80
2011,06,21,06,36,10.80
2011,06,21,06,37,10.90
2011,06,21,06,38,10.90
2011,06,21,06,39,10.90
2011,06,21,06,40,10.90
2011,06,21,06,41,10.90
2011,06,21,06,42,11.00
2011,06,21,06,43,11.00
2011,06,21,06,44,11.00
2011,06,21,06,45,11.10
2011,06,21,06,46,11.10
2011,06,21,06,47,11.10
2011,06,21,06,48,11.10
2011,06,21,06,49,11.10
2011,06,21,06,50,11.20
2011,06,21,06,51,11.20
2011,06,21,06,52,11.20
2011,06,21,06,53,11.30
2011,06,21,06,54,11.30
2011,06,21,06,55,11.40
2011,06,21,06,56,11.40
2011,06,21,06,57,11.50
2011,06,21,06,58,11.50
2011,06,21,06,59,11.60
2011,06,21,07,00,11.60
2011,06,21,07,01,11.70
2011,06,21,07,02,11.70
2011,06,21,07,03,11.80
2011,06,21,07,04,11.80
2011,06,21,07,05,11.80
2011,06,21,07,06,11.90
2011,06,21,07,07,11.90
2011,06,21,07,08,12.00
2011,06,21,07,09,12.10
2011,06,21,07,10,12.10
2011,06,21,07,11,12.20
2011,06,21,07,12,12.30
2011,06,21,07,13,12.40
2011,06,21,07,14,12.40
2011,06,21,07,15,12.40
2011,06,21,07,16,12.50
2011,06,21,07,17,12.50
2011,06,21,07,18,12.60
2011,06,21,07,19,12.70
2011,06,21,07,20,12.70
2011,06,21,07,21,12.80
2011,06,21,07,22,12.80
2011,06,21,07,23,12.80
2011,06,21,07,24,12.90
2011,06,21,07,25,13.00
2011,06,21,07,26,13.00
2011,06,21,07,27,13.10
2011,06,21,07,28,13.10
2011,06,21,07,29,13.20
2011,06,21,07,30,13.20
2011,06,21,07,31,13.30
2011,06,21,07,32,13.30
2011,06,21,07,33,13.40
2011,06,21,07,34,13.40
2011,06,21,07,35,13.50
2011,06,21,07,36,13.60
2011,06,21,07,37,13.70
2011,06,21,07,38,13.80
2011,06,21,07,39,13.80
2011,06,21,07,40,13.80
2011,06,21,07,41,13.80
2011,06,21,07,42,13.90
2011,06,21,07,43,13.90
2011,06,21,07,44,14.00
2011,06,21,07,45,14.10
2011,06,21,07,46,14.10
2011,06,21,07,47,14.20
2011,06,21,07,48,14.20
2011,06,21,07,49,14.30
2011,06,21,07,50,14.30
2011,06,21,07,51,14.40
2011,06,21,07,52,14.40
2011,06,21,07,53,14.50
2011,06,21,07,54,14.50
2011,06,21,07,55,14.60
2011,06,21,07,56,14.60
2011,06,21,07,57,14.60
2011,06,21,07,58,14.60
2011,06,21,07,59,14.70
2011,06,21,08,00,14.70
2011,06,21,08,01,14.70
2011,06,21,08,02,14.70
2011,06,21,08,03,14.80
2011,06,21,08,04,14.80
2011,06,21,08,05,14.80
2011,06,21,08,06,14.80
2011,06,21,08,07,14.80
2011,06,21,08,08,14.80
2011,06,21,08,09,14.90
2011,06,21,08,10,14.90
2011,06,21,08,11,14.90
2011,06,21,08,12,15.00
2011,06,21,08,13,15.00
2011,06,21,08,14,15.10
2011,06,21,08,15,15.10
2011,06,21,08,16,15.10
2011,06,21,08,17,15.10
2011,06,21,08,18,15.20
2011,06,21,08,19,15.20
2011,06,21,08,20,15.20
2011,06,21,08,21,15.20
2011,06,21,08,22,15.20
2011,06,21,08,23,15.20
2011,06,21,08,24,15.20
2011,06,21,08,25,15.20
2011,06,21,08,26,15.20
2011,06,21,08,27,15.20
2011,06,21,08,28,15.20
2011,06,21,08,29,15.20
2011,06,21,08,30,15.20
2011,06,21,08,31,15.30
2011,06,21,08,32,15.30
2011,06,21,08,33,15.30
2011,06,21,08,34,15.40
2011,06,21,08,35,15.40
2011,06,21,08,36,15.40
2011,06,21,08,37,15.40
2011,06,21,08,38,15.40
2011,06,21,08,39,15.40
2011,06,21,08,40,15.40
2011,06,21,08,41,15.40
2011,06,21,08,42,15.40
2011,06,21,08,43,15.40
2011,06,21,08,44,15.30
2011,06,21,08,45,15.30
2011,06,21,08,46,15.30
2011,06,21,08,47,15.40
2011,06,21,08,48,15.40
2011,06,21,08,49,15.50
2011,06,21,08,50,15.60
2011,06,21,08,51,15.70
2011,06,21,08,52,15.70
2011,06,21,08,53,15.80
2011,06,21,08,54,15.90
2011,06,21,08,55,15.90
2011,06,21,08,56,16.00
2011,06,21,08,57,16.00
2011,06,21,08,58,16.00
2011,06,21,08,59,16.10
2011,06,21,09,00,16.10
2011,06,21,09,01,16.20
2011,06,21,09,02,16.20
2011,06,21,09,03,16.30
2011,06,21,09,04,16.30
2011,06,21,09,05,16.40
2011,06,21,09,06,16.50
2011,06,21,09,07,16.50
2011,06,21,09,08,16.50
2011,06,21,09,09,16.60
2011,06,21,09,10,16.70
2011,06,21,09,11,16.70
2011,06,21,09,12,16.80
2011,06,21,09,13,16.80
2011,06,21,09,14,16.80
2011,06,21,09,15,16.70
2011,06,21,09,16,16.70
2011,06,21,09,17,16.70
2011,06,21,09,18,16.70
2011,06,21,09,19,16.70
2011,06,21,09,20,16.80
2011,06,21,09,21,16.80
2011,06,21,09,22,16.90
2011,06,21,09,23,16.90
2011,06,21,09,24,16.90
2011,06,21,09,25,16.90
2011,06,21,09,26,16.90
2011,06,21,09,27,16.90
2011,06,21,09,28,16.90
2011,06,21,09,29,17.00
2011,06,21,09,30,17.00
2011,06,21,09,31,17.10
2011,06,21,09,32,17.20
2011,06,21,09,33,17.30
2011,06,21,09,34,17.30
2011,06,21,09,35,17.40
2011,06,21,09,36,17.40
2011,06,21,09,37,17.50
2011,06,21,09,38,17.50
2011,06,21,09,39,17.60
2011,06,21,09,40,17.60
2011,06,21,09,41,17.60
2011,06,21,09,42,17.60
2011,06,21,09,43,17.70
2011,06,21,09,44,17.70
2011,06,21,09,45,17.70
2011,06,21,09,46,17.70
2011,06,21,09,47,17.80
2011,06,21,09,48,17.80
2011,06,21,09,49,17.80
2011,06,21,09,50,17.80
2011,06,21,09,51,17.90
2011,06,21,09,52,17.90
2011,06,21,09,53,18.00
2011,06,21,09,54,18.00
2011,06,21,09,55,18.10
2011,06,21,09,56,18.10
2011,06,21,09,57,18.10
2011,06,21,09,58,18.10
2011,06,21,09,59,18.10
2011,06,21,10,00,18.10
2011,06,21,10,01,18.10
2011,06,21,10,02,18.10
2011,06,21,10,03,18.10
2011,06,21,10,04,18.10
2011,06,21,10,05,18.10
2011,06,21,10,06,18.10
2011,06,21,10,07,18.10
2011,06,21,10,08,18.10
2011,06,21,10,09,18.10
2011,06,21,10,10,18.10
2011,06,21,10,11,18.10
2011,06,21,10,12,18.00
2011,06,21,10,13,17.90
2011,06,21,10,14,17.90
2011,06,21,10,15,17.90
2011,06,21,10,16,17.90
2011,06,21,10,17,17.80
2011,06,21,10,18,17.80
2011,06,21,10,19,17.70
2011,06,21,10,20,17.70
2011,06,21,10,21,17.70
2011,06,21,10,22,17.70
2011,06,21,10,23,17.70
2011,06,21,10,24,17.70
2011,06,21,10,25,17.70
2011,06,21,10,26,17.80
2011,06,21,10,27,17.80
2011,06,21,10,28,17.80
2011,06,21,10,29,17.90
2011,06,21,10,30,17.90
2011,06,21,10,31,18.00
2011,06,21,10,32,18.00
2011,06,21,10,33,18.00
2011,06,21,10,34,18.00
2011,06,21,10,35,18.00
2011,06,21,10,36,18.10
2011,06,21,10,37,18.10
2011,06,21,10,38,18.00
2011,06,21,10,39,17.90
2011,06,21,10,40,17.90
2011,06,21,10,41,17.80
2011,06,21,10,42,17.80
2011,06,21,10,43,17.80
2011,06,21,10,44,17.90
2011,06,21,10,45,17.90
2011,06,21,10,46,17.80
2011,06,21,10,47,17.80
2011,06,21,10,48,17.80
2011,06,21,10,49,17.80
2011,06,21,10,50,17.90
2011,06,21,10,51,18.10
2011,06,21,10,52,18.20
2011,06,21,10,53,18.30
2011,06,21,10,54,18.40
2011,06,21,10,55,18.50
2011,06,21,10,56,18.60
2011,06,21,10,57,18.50
2011,06,21,10,58,18.50
2011,06,21,10,59,18.50
2011,06,21,11,00,18.60
2011,06,21,11,01,18.60
2011,06,21,11,02,18.60
2011,06,21,11,03,18.60
2011,06,21,11,04,18.60
2011,06,21,11,05,18.60
2011,06,21,11,06,18.60
2011,06,21,11,07,18.70
2011,06,21,11,08,18.70
2011,06,21,11,09,18.80
2011,06,21,11,10,18.80
2011,06,21,11,11,18.80
2011,06,21,11,12,18.80
2011,06,21,11,13,18.80
2011,06,21,11,14,18.90
2011,06,21,11,15,19.00
2011,06,21,11,16,19.00
2011,06,21,11,17,19.10
2011,06,21,11,18,19.20
2011,06,21,11,19,19.20
2011,06,21,11,20,19.30
2011,06,21,11,21,19.30
2011,06,21,11,22,19.30
2011,06,21,11,23,19.30
2011,06,21,11,24,19.30
2011,06,21,11,25,19.30
2011,06,21,11,26,19.30
2011,06,21,11,27,19.30
2011,06,21,11,28,19.30
2011,06,21,11,29,19.40
2011,06,21,11,30,19.40
2011,06,21,11,31,19.30
2011,06,21,11,32,19.30
2011,06,21,11,33,19.30
2011,06,21,11,34,19.30
2011,06,21,11,35,19.40
2011,06,21,11,36,19.40
2011,06,21,11,37,19.40
2011,06,21,11,38,19.30
2011,06,21,11,39,19.30
2011,06,21,11,40,19.20
2011,06,21,11,41,19.30
2011,06,21,11,42,19.30
2011,06,21,11,43,19.30
2011,06,21,11,44,19.40
2011,06,21,11,45,19.50
2011,06,21,11,46,19.60
2011,06,21,11,47,19.70
2011,06,21,11,48,19.70
2011,06,21,11,49,19.70
2011,06,21,11,50,19.70
2011,06,21,11,51,19.70
2011,06,21,11,52,19.70
2011,06,21,11,53,19.80
2011,06,21,11,54,19.80
2011,06,21,11,55,19.90
2011,06,21,11,56,19.90
2011,06,21,11,57,19.80
2011,06,21,11,58,19.70
2011,06,21,11,59,19.60
2011,06,21,12,00,19.60
2011,06,21,12,01,19.70
2011,06,21,12,02,19.70
2011,06,21,12,03,19.80
2011,06,21,12,04,19.90
2011,06,21,12,05,20.00
2011,06,21,12,06,20.10
2011,06,21,12,07,20.20
2011,06,21,12,08,20.20
2011,06,21,12,09,20.10
2011,06,21,12,10,20.00
2011,06,21,12,11,19.90
2011,06,21,12,12,19.80
2011,06,21,12,13,19.80
2011,06,21,12,14,19.80
2011,06,21,12,15,19.80
2011,06,21,12,16,19.90
2011,06,21,12,17,19.80
2011,06,21,12,18,19.90
2011,06,21,12,19,19.90
2011,06,21,12,20,19.80
2011,06,21,12,21,19.80
2011,06,21,12,22,19.80
2011,06,21,12,23,19.80
2011,06,21,12,24,19.90
2011,06,21,12,25,19.90
2011,06,21,12,26,19.90
2011,06,21,12,27,20.00
2011,06,21,12,28,20.10
2011,06,21,12,29,20.20
2011,06,21,12,30,20.20
2011,06,21,12,31,20.30
2011,06,21,12,32,20.30
2011,06,21,12,33,20.30
2011,06,21,12,34,20.40
2011,06,21,12,35,20.50
2011,06,21,12,36,20.60
2011,06,21,12,37,20.60
2011,06,21,12,38,20.60
2011,06,21,12,39,20.70
2011,06,21,12,40,20.70
2011,06,21,12,41,20.80
2011,06,21,12,42,20.80
2011,06,21,12,43,20.80
2011,06,21,12,44,20.80
2011,06,21,12,45,20.70
2011,06,21,12,46,20.70
2011,06,21,12,47,20.70
2011,06,21,12,48,20.60
2011,06,21,12,49,20.50
2011,06,21,12,50,20.30
2011,06,21,12,51,20.20
2011,06,21,12,52,20.00
2011,06,21,12,53,19.90
2011,06,21,12,54,19.80
2011,06,21,12,55,19.70
2011,06,21,12,56,19.70
2011,06,21,12,57,19.70
2011,06,21,12,58,19.70
2011,06,21,12,59,19.70
2011,06,21,13,00,19.80
2011,06,21,13,01,19.90
2011,06,21,13,02,20.00
2011,06,21,13,03,20.10
2011,06,21,13,04,20.30
2011,06,21,13,05,20.30
2011,06,21,13,06,20.30
2011,06,21,13,07,20.30
2011,06,21,13,08,20.30
2011,06,21,13,09,20.30
2011,06,21,13,10,20.20
2011,06,21,13,11,20.10
2011,06,21,13,12,20.00
2011,06,21,13,13,19.90
2011,06,21,13,14,19.70
2011,06,21,13,15,19.60
2011,06,21,13,16,19.50
2011,06,21,13,17,19.30
2011,06,21,13,18,19.10
2011,06,21,13,19,19.00
2011,06,21,13,20,19.00
2011,06,21,13,21,19.00
2011,06,21,13,22,19.10
2011,06,21,13,23,19.20
2011,06,21,13,24,19.30
2011,06,21,13,25,19.40
2011,06,21,13,26,19.50
2011,06,21,13,27,19.70
2011,06,21,13,28,19.80
2011,06,21,13,29,19.90
2011,06,21,13,30,19.90
2011,06,21,13,31,20.00
2011,06,21,13,32,20.00
2011,06,21,13,33,19.90
2011,06,21,13,34,19.90
2011,06,21,13,35,19.90
2011,06,21,13,36,19.80
2011,06,21,13,37,19.80
2011,06,21,13,38,19.80
2011,06,21,13,39,19.80
2011,06,21,13,40,19.80
2011,06,21,13,41,19.80
2011,06,21,13,42,19.80
2011,06,21,13,43,19.90
2011,06,21,13,44,19.90
2011,06,21,13,45,19.90
2011,06,21,13,46,19.80
2011,06,21,13,47,19.70
2011,06,21,13,48,19.60
2011,06,21,13,49,19.60
2011,06,21,13,50,19.50
2011,06,21,13,51,19.40
2011,06,21,13,52,19.40
2011,06,21,13,53,19.40
2011,06,21,13,54,19.40
2011,06,21,13,55,19.40
2011,06,21,13,56,19.40
2011,06,21,13,57,19.50
2011,06,21,13,58,19.50
2011,06,21,13,59,19.60
2011,06,21,14,00,19.60
2011,06,21,14,01,19.70
2011,06,21,14,02,19.70
2011,06,21,14,03,19.70
2011,06,21,14,04,19.70
2011,06,21,14,05,19.60
2011,06,21,14,06,19.60
2011,06,21,14,07,19.50
2011,06,21,14,08,19.50
2011,06,21,14,09,19.50
2011,06,21,14,10,19.60
2011,06,21,14,11,19.70
2011,06,21,14,12,19.80
2011,06,21,14,13,19.80
2011,06,21,14,14,19.80
2011,06,21,14,15,19.80
2011,06,21,14,16,19.80
2011,06,21,14,17,19.80
2011,06,21,14,18,19.80
2011,06,21,14,19,19.80
2011,06,21,14,20,19.80
2011,06,21,14,21,19.70
2011,06,21,14,22,19.70
2011,06,21,14,23,19.70
2011,06,21,14,24,19.80
2011,06,21,14,25,19.80
2011,06,21,14,26,19.80
2011,06,21,14,27,19.80
2011,06,21,14,28,19.80
2011,06,21,14,29,19.80
2011,06,21,14,30,19.80
2011,06,21,14,31,19.90
2011,06,21,14,32,19.90
2011,06,21,14,33,20.00
2011,06,21,14,34,20.10
2011,06,21,14,35,20.10
2011,06,21,14,36,20.20
2011,06,21,14,37,20.20
2011,06,21,14,38,20.30
2011,06,21,14,39,20.30
2011,06,21,14,40,20.30
2011,06,21,14,41,20.30
2011,06,21,14,42,20.10
2011,06,21,14,43,20.00
2011,06,21,14,44,19.80
2011,06,21,14,45,19.70
2011,06,21,14,46,19.70
2011,06,21,14,47,19.70
2011,06,21,14,48,19.60
2011,06,21,14,49,19.50
2011,06,21,14,50,19.40
2011,06,21,14,51,19.40
2011,06,21,14,52,19.20
2011,06,21,14,53,19.10
2011,06,21,14,54,19.10
2011,06,21,14,55,19.00
2011,06,21,14,56,19.00
2011,06,21,14,57,19.10
2011,06,21,14,58,19.10
2011,06,21,14,59,19.10
2011,06,21,15,00,19.20
2011,06,21,15,01,19.30
2011,06,21,15,02,19.40
2011,06,21,15,03,19.40
2011,06,21,15,04,19.40
2011,06,21,15,05,19.30
2011,06,21,15,06,19.30
2011,06,21,15,07,19.20
2011,06,21,15,08,19.20
2011,06,21,15,09,19.10
2011,06,21,15,10,19.20
2011,06,21,15,11,19.10
2011,06,21,15,12,19.20
2011,06,21,15,13,19.20
2011,06,21,15,14,19.10
2011,06,21,15,15,19.00
2011,06,21,15,16,18.80
2011,06,21,15,17,18.70
2011,06,21,15,18,18.70
2011,06,21,15,19,18.70
2011,06,21,15,20,18.70
2011,06,21,15,21,18.80
2011,06,21,15,22,19.00
2011,06,21,15,23,19.10
2011,06,21,15,24,19.10
2011,06,21,15,25,19.20
2011,06,21,15,26,19.20
2011,06,21,15,27,19.30
2011,06,21,15,28,19.30
2011,06,21,15,29,19.30
2011,06,21,15,30,19.30
2011,06,21,15,31,19.30
2011,06,21,15,32,19.20
2011,06,21,15,33,19.20
2011,06,21,15,34,19.20
2011,06,21,15,35,19.20
2011,06,21,15,36,19.30
2011,06,21,15,37,19.30
2011,06,21,15,38,19.30
2011,06,21,15,39,19.30
2011,06,21,15,40,19.30
2011,06,21,15,41,19.30
2011,06,21,15,42,19.40
2011,06,21,15,43,19.40
2011,06,21,15,44,19.40
2011,06,21,15,45,19.40
2011,06,21,15,46,19.50
2011,06,21,15,47,19.60
2011,06,21,15,48,19.60
2011,06,21,15,49,19.50
2011,06,21,15,50,19.50
2011,06,21,15,51,19.40
2011,06,21,15,52,19.40
2011,06,21,15,53,19.30
2011,06,21,15,54,19.30
2011,06,21,15,55,19.20
2011,06,21,15,56,19.20
2011,06,21,15,57,19.10
2011,06,21,15,58,19.10
2011,06,21,15,59,19.00
2011,06,21,16,00,19.00
2011,06,21,16,01,19.10
2011,06,21,16,02,19.10
2011,06,21,16,03,19.10
2011,06,21,16,04,19.10
2011,06,21,16,05,19.00
2011,06,21,16,06,18.90
2011,06,21,16,07,18.80
2011,06,21,16,08,18.80
2011,06,21,16,09,18.70
2011,06,21,16,10,18.80
2011,06,21,16,11,18.80
2011,06,21,16,12,18.90
2011,06,21,16,13,19.00
2011,06,21,16,14,19.00
2011,06,21,16,15,19.10
2011,06,21,16,16,19.20
2011,06,21,16,17,19.20
2011,06,21,16,18,19.20
2011,06,21,16,19,19.20
2011,06,21,16,20,19.20
2011,06,21,16,21,19.20
2011,06,21,16,22,19.20
2011,06,21,16,23,19.20
2011,06,21,16,24,19.10
2011,06,21,16,25,18.90
2011,06,21,16,26,18.80
2011,06,21,16,27,18.70
2011,06,21,16,28,18.70
2011,06,21,16,29,18.60
2011,06,21,16,30,18.60
2011,06,21,16,31,18.60
2011,06,21,16,32,18.70
2011,06,21,16,33,18.70
2011,06,21,16,34,18.80
2011,06,21,16,35,18.80
2011,06,21,16,36,18.80
2011,06,21,16,37,18.80
2011,06,21,16,38,18.90
2011,06,21,16,39,18.90
2011,06,21,16,40,19.00
2011,06,21,16,41,19.10
2011,06,21,16,42,19.20
2011,06,21,16,43,19.30
2011,06,21,16,44,19.40
2011,06,21,16,45,19.50
2011,06,21,16,46,19.70
2011,06,21,16,47,19.80
2011,06,21,16,48,19.80
2011,06,21,16,49,19.90
2011,06,21,16,50,20.00
2011,06,21,16,51,20.00
2011,06,21,16,52,19.90
2011,06,21,16,53,19.80
2011,06,21,16,54,19.80
2011,06,21,16,55,19.70
2011,06,21,16,56,19.70
2011,06,21,16,57,19.80
2011,06,21,16,58,19.80
2011,06,21,16,59,19.80
2011,06,21,17,00,19.90
2011,06,21,17,01,20.00
2011,06,21,17,02,20.10
2011,06,21,17,03,20.20
2011,06,21,17,04,20.30
2011,06,21,17,05,20.30
2011,06,21,17,06,20.30
2011,06,21,17,07,20.30
2011,06,21,17,08,20.30
2011,06,21,17,09,20.30
2011,06,21,17,10,20.30
2011,06,21,17,11,20.30
2011,06,21,17,12,20.20
2011,06,21,17,13,20.10
2011,06,21,17,14,20.00
2011,06,21,17,15,19.90
2011,06,21,17,16,19.80
2011,06,21,17,17,19.70
2011,06,21,17,18,19.60
2011,06,21,17,19,19.50